User: anonymous   Login
Location: Unspecified
(0.0000°N, 0.0000°E)
Time: 15:46:25
(UTC+02:00)
Language:

Cosmos 1703 - Orbit

View from above orbital plane
View from above orbital plane
View from above satellite
View from above satellite

Ground track
Ground track

The orbit data is extracted from the following two-line orbital elements,

1 16262U 85108A   17173.78559233 +.00000091 +00000-0 +36983-5 0  9994
2 16262 082.4825 244.4499 0011315 254.4499 105.5481 15.10372053719482
Epoch (UTC): 22 June 2017 18:51:15
Eccentricity: 0.0011315
inclination: 82.4825°
perigee height: 527 km
apogee height: 543 km
right ascension of ascending node: 244.4499°
argument of perigee: 254.4499°
revolutions per day: 15.10372053
mean anomaly at epoch: 105.5481°
orbit number at epoch: 71948

The dashed part of the orbit path shows where the satellite is in the earth's shadow,  

DLR